Weather Service Report


340 
ASUS41 KALY 211010
RWRALY

NEW YORK STATE HOURLY WEATHER ROUNDUP
NATIONAL WEATHER SERVICE ALBANY NY
600 AM EDT TUE APR 21 2015

NOTE: "FAIR" INDICATES FEW OR NO CLOUDS BELOW 12,000 FEET WITH NO
SIGNIFICANT WEATHER AND/OR NO OBSTRUCTIONS TO VISIBILITY.

NYZ032-033-038>043-046>054-057>066-NYZ062>081-211100-
EAST

  
CITY           SKY/WX    TMP DP  RH WIND       PRES   REMARKS
ALBANY         CLOUDY    50  48  93 N6        29.54F                  
GLENS FALLS    LGT RAIN  48  45  89 W3        29.55S                  
POUGHKEEPSIE   CLOUDY    53  51  93 NW3       29.55R                  
NEWBURGH       MOCLDY    52  52 100 NW7       29.57R                  
MONTGOMERY     LGT RAIN  52  32  46 NE6       29.54F                  
WHITE PLAINS   DRIZZLE   53  52  96 CALM      29.55S                  
ISLIP          LGT RAIN  52  51  97 CALM      29.55F VSB 1/8          
NEW YORK CITY  LGT RAIN  55  53  93 S3        29.57R                  
CENTRAL PARK   LGT RAIN  53  53 100 CALM      29.60R FOG              
$$

NYZ005>009-017-018-044>046-055-056-211100-
CENTRAL

  
CITY           SKY/WX    TMP DP  RH WIND       PRES   REMARKS
FULTON         CLOUDY    48  44  86 CALM      29.58S                  
SYRACUSE       LGT RAIN  49  44  83 SW7       29.59S                  
ROME           LGT RAIN  48  46  93 W7        29.60R                  
ELMIRA         CLOUDY    48  45  89 W5        29.61R                  
BINGHAMTON     LGT RAIN  44  43  96 NW8       29.60R                  
MONTICELLO     CLOUDY    48  48 100 CALM      29.58F                  
$$

NYZ026>034-041>043-211100-
NORTH

  
CITY           SKY/WX    TMP DP  RH WIND       PRES   REMARKS
WATERTOWN      LGT RAIN  46  41  82 SW17      29.56S                  
FORT DRUM      NOT AVBL                                               
MASSENA        CLOUDY    49  47  93 SW7       29.51S                  
SARANAC LAKE   LGT RAIN  46  46 100 SW6       29.50R FOG              
PLATTSBURGH    LGT RAIN  46  45  96 SE9       29.52F                  
$$

NYZ001>004-010>016-019>021-211100-
WEST

  
CITY           SKY/WX    TMP DP  RH WIND       PRES   REMARKS
NIAGARA FALLS  CLOUDY    42  37  82 SW14      29.57S                  
BUFFALO        CLOUDY    42  36  79 SW15      29.58S                  
DUNKIRK        LGT RAIN  41  37  86 W18G29    29.62R                  
JAMESTOWN      MOCLDY    41  32  70 SW13G21   29.61S                  
WELLSVILLE     CLOUDY    42  36  79 SW7       29.61S                  
ROCHESTER      CLOUDY    47  40  76 SW15      29.58R                  
PENN YAN       CLOUDY    47  40  76 SW6       29.60R                  
$$

             KEY
       WCI = WIND CHILL INDEX
       VSB = VISIBILITY
       HX  = HEAT INDEX
$$

Return to Home page


Western Regional Climate Center, wrcc@dri.edu